CW3794 Weather Reports


Display with metric or nautical units.
time (UTC)temp
F
wind
direction
speed
MPH
gust
MPH
rain 1hr
in
rain 24hr
in
rain mn
in
humidity
%
barometer
mb
20260503195405 90 226 0.0 1.0 0.00 0.00 0.00 24 1007.7
20260503194907 90 226 0.0 3.0 0.00 0.00 0.00 24 1007.8
20260503194405 90 251 0.0 2.0 0.00 0.00 0.00 24 1007.8
20260503193906 90 251 0.0 2.0 0.00 0.00 0.00 24 1007.9
20260503193406 90 167 1.0 9.0 0.00 0.00 0.00 23 1008.2
20260503192906 90 168 0.0 0.0 0.00 0.00 0.00 24 1008.2
20260503192405 90 168 0.0 7.0 0.00 0.00 0.00 23 1008.3
20260503191906 90 150 1.0 10.0 0.00 0.00 0.00 23 1008.4
20260503191406 90 170 0.0 3.0 0.00 0.00 0.00 24 1008.4
20260503190905 89 169 1.0 7.0 0.00 0.00 0.00 24 1008.5
20260503190406 89 170 3.0 13.0 0.00 0.00 0.00 24 1008.5
20260503185405 89 168 0.0 5.0 0.00 0.00 0.00 24 1008.6
20260503184905 89 165 0.0 13.0 0.00 0.00 0.00 23 1008.8
20260503184405 89 173 1.0 9.0 0.00 0.00 0.00 24 1008.8
20260503183905 88 173 1.0 12.0 0.00 0.00 0.00 24 1009.0
20260503183405 88 175 0.0 12.0 0.00 0.00 0.00 25 1009.0
20260503182905 89 174 0.0 5.0 0.00 0.00 0.00 25 1009.0
20260503182406 89 174 0.0 10.0 0.00 0.00 0.00 25 1009.1
20260503181905 88 174 2.0 7.0 0.00 0.00 0.00 25 1009.3
20260503181406 88 159 3.0 15.0 0.00 0.00 0.00 25 1009.4
20260503180905 88 169 2.0 15.0 0.00 0.00 0.00 25 1009.4
20260503175405 87 164 1.0 15.0 0.00 0.00 0.00 27 1009.4
20260503174905 87 159 1.0 12.0 0.00 0.00 0.00 26 1009.5
20260503174405 87 181 2.0 16.0 0.00 0.00 0.00 26 1009.5
20260503173906 86 169 1.0 9.0 0.00 0.00 0.00 27 1009.5
20260503173405 86 161 1.0 7.0 0.00 0.00 0.00 27 1009.6
20260503172906 85 161 1.0 10.0 0.00 0.00 0.00 29 1009.7
20260503172406 85 161 1.0 12.0 0.00 0.00 0.00 29 1009.8
20260503171906 84 114 0.0 3.0 0.00 0.00 0.00 29 1009.8
20260503171405 84 121 0.0 3.0 0.00 0.00 0.00 29 1009.8
20260503170906 85 63 0.0 2.0 0.00 0.00 0.00 29 1009.8
20260503170405 84 184 2.0 10.0 0.00 0.00 0.00 29 1009.8
20260503150905 80 157 0.0 2.0 0.00 0.00 0.00 32 1009.7
20260503150406 80 125 0.0 3.0 0.00 0.00 0.00 33 1009.7
20260503131405 76 199 0.0 0.0 0.00 0.00 0.00 35 1009.0
20260503130905 75 200 0.0 0.0 0.00 0.00 0.00 35 1009.0
20260503130406 74 200 0.0 0.0 0.00 0.00 0.00 36 1009.0
20260503090405 74 200 0.0 0.0 0.00 0.00 0.00 28 1008.7
20260503080405 73 200 0.0 0.0 0.00 0.00 0.00 29 1009.0
20260503071905 73 200 0.0 0.0 0.00 0.00 0.00 30 1009.2
20260503071405 73 200 0.0 0.0 0.00 0.00 0.00 29 1009.2
20260503070905 73 200 0.0 0.0 0.00 0.00 0.00 29 1009.3
20260503070405 73 200 0.0 0.0 0.00 0.00 0.00 29 1009.2
20260503053906 77 200 0.0 0.0 0.00 0.00 0.00 26 1008.8
20260503053405 77 200 0.0 0.0 0.00 0.00 0.00 26 1008.7
20260503052405 77 199 0.0 0.0 0.00 0.00 0.00 26 1008.7
20260503051405 77 199 0.0 0.0 0.00 0.00 0.00 25 1008.8
20260503050904 78 199 0.0 0.0 0.00 0.00 0.00 25 1008.7
20260503050406 78 199 0.0 0.0 0.00 0.00 0.00 25 1008.7
20260503045905 78 199 0.0 0.0 0.00 0.00 0.00 25 1008.7
20260503045405 78 199 0.0 0.0 0.00 0.00 0.00 25 1008.6
20260503044405 79 199 0.0 0.0 0.00 0.00 0.00 24 1008.6
20260503043905 79 199 0.0 0.0 0.00 0.00 0.00 24 1008.6
20260503043406 79 199 0.0 0.0 0.00 0.00 0.00 24 1008.5
20260503042905 79 199 0.0 0.0 0.00 0.00 0.00 24 1008.4
20260503041905 80 199 0.0 0.0 0.00 0.00 0.00 24 1008.2
20260503041405 80 199 0.0 0.0 0.00 0.00 0.00 24 1008.2
20260503040904 80 199 0.0 0.0 0.00 0.00 0.00 24 1008.1
20260503040405 80 199 0.0 0.0 0.00 0.00 0.00 24 1008.0
20260503035905 80 198 0.0 0.0 0.00 0.00 0.00 24 1008.0
20260503035404 80 199 0.0 0.0 0.00 0.00 0.00 24 1007.9
20260503034905 80 199 0.0 0.0 0.00 0.00 0.00 24 1007.9
20260503034405 80 199 0.0 0.0 0.00 0.00 0.00 24 1008.0
20260503033905 80 199 0.0 0.0 0.00 0.00 0.00 24 1007.8
20260503032906 81 199 0.0 0.0 0.00 0.00 0.00 23 1007.8
20260503032405 81 199 0.0 0.0 0.00 0.00 0.00 23 1007.7
20260503031905 82 199 0.0 0.0 0.00 0.00 0.00 23 1007.6
20260503030905 82 199 0.0 0.0 0.00 0.00 0.00 23 1007.6
20260503030405 82 199 0.0 0.0 0.00 0.00 0.00 22 1007.6
20260503025905 82 199 0.0 0.0 0.00 0.00 0.00 22 1007.8
20260503025405 83 199 0.0 0.0 0.00 0.00 0.00 22 1007.7
20260503024905 83 199 0.0 0.0 0.00 0.00 0.00 21 1007.7
20260503023905 84 199 0.0 0.0 0.00 0.00 0.00 21 1007.5
20260503023405 84 199 0.0 0.0 0.00 0.00 0.00 21 1007.5
20260503022905 84 199 0.0 0.0 0.00 0.00 0.00 21 1007.5
20260503022405 84 199 0.0 0.0 0.00 0.00 0.00 21 1007.4
20260503021905 85 199 0.0 0.0 0.00 0.00 0.00 21 1007.4
20260503021405 85 199 0.0 0.0 0.00 0.00 0.00 20 1007.4
20260503020905 85 199 0.0 0.0 0.00 0.00 0.00 20 1007.3
20260503020404 86 199 0.0 0.0 0.00 0.00 0.00 20 1007.3
20260503015905 86 199 0.0 0.0 0.00 0.00 0.00 20 1007.5
20260503015405 87 199 0.0 0.0 0.00 0.00 0.00 20 1007.3
20260503014904 87 199 0.0 0.0 0.00 0.00 0.00 20 1007.4
20260503014405 87 199 0.0 0.0 0.00 0.00 0.00 20 1007.5
20260503013905 87 199 0.0 0.0 0.00 0.00 0.00 20 1007.5
20260503013405 87 199 0.0 0.0 0.00 0.00 0.00 20 1007.5
20260503012905 88 199 0.0 0.0 0.00 0.00 0.00 19 1007.5
20260503011905 88 199 0.0 0.0 0.00 0.00 0.00 19 1007.6
20260503011405 88 199 0.0 0.0 0.00 0.00 0.00 19 1007.6
20260503010906 88 199 0.0 0.0 0.00 0.00 0.00 19 1007.6
20260503010405 88 199 0.0 0.0 0.00 0.00 0.00 19 1007.6
20260503005904 88 199 0.0 0.0 0.00 0.00 0.00 20 1007.9
20260503005404 88 199 0.0 0.0 0.00 0.00 0.00 19 1007.9
20260503004404 88 199 0.0 0.0 0.00 0.00 0.00 20 1007.9
20260503003905 88 199 0.0 0.0 0.00 0.00 0.00 20 1007.9
20260503003404 89 199 0.0 0.0 0.00 0.00 0.00 20 1007.8
20260503002905 89 199 1.0 5.0 0.00 0.00 0.00 20 1007.8
20260503002404 89 199 0.0 3.0 0.00 0.00 0.00 20 1007.8
20260503001404 89 199 0.0 6.0 0.00 0.00 0.00 20 1007.9
20260503000905 89 199 0.0 2.0 0.00 0.00 0.00 20 1007.9
20260503000404 89 199 0.0 3.0 0.00 0.00 0.00 20 1007.9
20260502235905 89 199 0.0 1.0 0.00 0.00 0.00 20 1008.0
20260502235405 89 199 0.0 0.0 0.00 0.00 0.00 20 1008.1
20260502234405 90 199 0.0 10.0 0.00 0.00 0.00 20 1008.0
20260502232904 90 208 0.0 0.0 0.00 0.00 0.00 20 1008.0
20260502232404 90 208 0.0 0.0 0.00 0.00 0.00 20 1008.0
20260502231905 90 208 0.0 12.0 0.00 0.00 0.00 20 1008.1
20260502231405 90 222 0.0 3.0 0.00 0.00 0.00 20 1008.1
20260502230905 90 222 0.0 0.0 0.00 0.00 0.00 19 1008.0
20260502230404 90 222 0.0 0.0 0.00 0.00 0.00 19 1008.0
20260502225905 91 222 0.0 3.0 0.00 0.00 0.00 20 1008.1
20260502225405 90 222 0.0 0.0 0.00 0.00 0.00 20 1008.2
20260502224905 90 222 2.0 10.0 0.00 0.00 0.00 19 1008.3
20260502224405 91 225 0.0 0.0 0.00 0.00 0.00 20 1008.3
20260502223905 91 225 0.0 1.0 0.00 0.00 0.00 20 1008.3
20260502223405 90 225 0.0 9.0 0.00 0.00 0.00 20 1008.4
20260502222905 91 227 0.0 5.0 0.00 0.00 0.00 19 1008.4
20260502222405 91 227 0.0 0.0 0.00 0.00 0.00 19 1008.5
20260502221905 91 227 0.0 1.0 0.00 0.00 0.00 19 1008.5
20260502221405 91 227 1.0 7.0 0.00 0.00 0.00 19 1008.6
20260502220904 91 270 0.0 0.0 0.00 0.00 0.00 20 1008.7
20260502220404 90 273 0.0 3.0 0.00 0.00 0.00 20 1008.9
20260502215404 90 276 0.0 3.0 0.00 0.00 0.00 20 1009.0
20260502214905 90 220 0.0 0.0 0.00 0.00 0.00 20 1009.0
20260502214405 91 219 0.0 0.0 0.00 0.00 0.00 20 1009.1
20260502213905 90 220 0.0 0.0 0.00 0.00 0.00 20 1009.1
20260502213405 90 219 0.0 2.0 0.00 0.00 0.00 20 1009.3
20260502212904 90 219 0.0 1.0 0.00 0.00 0.00 20 1009.3
20260502212404 90 176 0.0 7.0 0.00 0.00 0.00 20 1009.4
20260502211904 90 177 0.0 2.0 0.00 0.00 0.00 20 1009.5
20260502211405 91 177 0.0 0.0 0.00 0.00 0.00 19 1009.6
20260502210904 90 177 0.0 1.0 0.00 0.00 0.00 20 1009.7
20260502210404 90 176 0.0 0.0 0.00 0.00 0.00 19 1009.7
20260502205905 90 176 0.0 0.0 0.00 0.00 0.00 19 1009.7
20260502205404 90 176 0.0 0.0 0.00 0.00 0.00 19 1009.7
20260502204905 90 176 0.0 2.0 0.00 0.00 0.00 19 1009.9
20260502204405 89 176 0.0 1.0 0.00 0.00 0.00 19 1010.0
20260502203905 89 176 0.0 0.0 0.00 0.00 0.00 18 1010.0
20260502203404 89 176 0.0 0.0 0.00 0.00 0.00 17 1010.1
20260502202905 89 176 0.0 6.0 0.00 0.00 0.00 18 1010.2
20260502202404 89 176 0.0 5.0 0.00 0.00 0.00 19 1010.3
20260502201904 88 177 0.0 3.0 0.00 0.00 0.00 20 1010.4
20260502201404 89 176 0.0 5.0 0.00 0.00 0.00 20 1010.3